Dewpoint
47 47 47 46 46 46 46 45 45 44 46 46 46 45 45 45 45 44 42 45 42 37 36 35 32 29 27 27 26 37 26 31 29 29 26 21 18 17 19 21 22 20 24 23 26 25 24 43 40 35 46 47 47 46
47 47 47 47 47 47 47 46 46 44 46 45 45 44 45 44 44 44 41 44 45 39 36 37 35 33 31 29 26 25 28 32 30 34 36 38 38 39 24 23 22 22 24 24 25 28 47 48 46 48 47 46 46 46
47 47 47 47 47 46 46 46 46 46 45 45 44 44 43 44 44 44 41 44 42 40 37 32 29 30 31 30 29 25 26 29 30 37 34 37 41 46 39 30 25 32 29 29 40 46 47 47 47 48 49 48 47 48
47 46 47 47 46 46 46 46 45 45 45 44 44 43 43 42 44 44 44 45 43 39 32 25 24 24 25 26 29 28 29 32 34 34 35 39 39 47 43 46 47 48 49 37 45 47 48 49 50 50 51 50 49 51
48 47 46 46 46 45 45 45 45 44 44 43 43 43 43 43 43 43 44 44 45 40 31 28 27 28 25 22 26 27 26 29 29 34 38 41 39 43 45 49 44 49 48 49 43 47 47 47 47 48 49 49 50 51
47 47 47 47 46 45 45 45 44 44 43 44 44 44 43 43 44 41 40 42 42 43 35 23 28 29 33 24 29 29 28 31 34 39 38 43 41 39 45 44 46 50 51 53 50 49 45 45 44 45 43 44 45 46
47 47 47 46 46 45 45 45 44 44 43 43 43 44 45 45 41 40 39 38 37 37 34 31 33 34 36 31 30 32 33 35 40 40 37 43 41 44 43 41 46 49 50 49 49 48 47 45 46 47 43 39 39 38
47 47 46 46 46 45 45 45 46 45 45 44 44 45 45 46 44 38 40 41 39 39 39 33 33 37 35 32 31 33 33 34 41 39 42 42 44 46 41 46 46 48 49 48 47 49 48 50 51 49 49 49 39 40
47 46 46 46 45 45 45 46 46 45 46 46 46 46 42 40 33 43 44 45 41 39 35 35 34 34 34 38 34 30 28 27 35 33 43 45 41 40 44 45 48 48 48 49 49 49 49 47 46 48 50 47 46 42
47 47 47 47 46 46 46 46 46 45 45 45 44 40 37 36 43 44 46 42 41 39 38 34 33 36 37 31 24 24 28 30 32 42 45 41 40 45 47 47 49 49 48 48 46 47 48 48 48 49 46 46 49 48
46 46 46 47 46 46 46 47 47 47 43 39 37 36 39 42 40 41 39 38 39 36 36 37 39 37 37 38 34 40 40 36 37 40 42 38 37 44 47 47 48 50 50 48 49 49 50 50 51 48 48 48 49 46
45 45 45 45 46 46 46 47 48 44 41 42 41 42 42 40 39 36 36 38 37 36 42 41 40 37 35 38 40 37 36 41 35 44 38 35 40 46 46 46 48 49 48 48 47 47 47 44 45 47 48 47 46 46
45 45 45 45 44 45 46 48 48 48 46 44 44 40 38 38 35 34 33 36 37 39 42 42 40 35 38 41 41 42 32 35 38 39 36 39 42 47 47 48 47 47 45 45 44 44 41 41 44 45 46 45 45 46
47 47 46 45 44 46 47 49 46 45 43 39 37 34 34 35 37 37 37 37 39 37 36 40 38 36 34 32 34 31 38 38 35 35 37 42 45 46 47 45 42 41 40 40 40 40 39 40 42 45 46 47 47 49
46 46 46 45 46 46 47 48 45 46 43 38 37 32 36 39 40 40 39 35 33 33 34 39 33 31 32 33 34 34 33 35 36 38 41 44 46 47 44 42 40 39 40 41 39 38 38 39 41 42 45 46 47 49
45 45 42 44 46 46 47 46 45 44 44 43 40 37 35 34 32 31 33 32 35 36 36 33 31 33 34 36 38 36 35 33 37 44 46 46 46 44 45 45 42 41 40 41 39 39 39 39 40 40 40 41 42 46
45 38 44 46 46 46 46 44 41 37 35 33 32 29 31 31 32 34 35 35 37 33 31 31 35 35 35 35 37 37 35 38 43 45 48 48 46 46 45 45 44 42 42 41 41 42 42 40 40 40 39 40 40 41
39 40 44 46 47 44 41 38 36 29 27 28 29 30 32 33 35 35 36 37 37 35 34 34 35 35 35 36 37 42 45 48 47 48 49 48 48 47 48 47 46 45 44 42 41 41 42 39 36 35 36 38 38 36
44 45 47 47 46 45 37 36 38 30 28 30 31 32 32 34 36 35 36 37 36 35 34 35 35 37 39 42 42 44 46 48 47 48 48 48 48 47 46 46 44 43 40 39 37 36 37 37 36 35 34 35 34 35
47 47 46 45 45 40 35 35 36 32 30 32 32 32 32 34 34 35 33 33 33 33 33 33 34 37 38 42 44 46 48 50 48 45 42 43 41 40 39 38 37 37 35 35 34 32 33 32 32 31 31 32 32 33
45 45 45 43 41 40 38 36 34 35 35 33 33 33 33 37 38 40 42 37 36 37 38 42 45 46 46 48 49 48 47 47 46 46 41 38 36 35 35 34 34 33 32 32 31 30 29 29 28 27 27 28 28 29
45 46 44 42 42 41 41 40 38 38 38 34 38 39 39 40 40 41 42 42 43 46 46 47 48 48 46 46 46 44 47 47 48 48 45 44 39 38 36 33 32 31 30 30 28 28 27 28 28 25 25 25 27 28
46 46 44 43 42 42 41 42 40 40 39 39 39 38 39 40 43 44 41 44 45 47 48 46 46 45 40 37 37 35 36 35 33 35 35 34 34 34 32 31 29 29 29 29 28 28 27 26 26 25 26 25 25 28
46 44 43 42 42 41 41 40 40 39 38 37 39 39 39 41 44 42 40 43 45 46 42 39 35 35 33 35 32 32 31 30 29 30 32 30 30 31 32 31 29 29 29 28 27 27 26 24 24 24 26 26 25 26
42 41 43 41 43 40 36 36 37 34 34 36 37 36 38 41 36 38 40 42 41 35 35 34 33 33 31 30 29 28 28 26 28 28 31 30 30 29 29 29 31 31 30 29 28 27 25 25 25 26 26 26 27 26
40 43 40 37 37 36 35 33 34 34 35 33 34 35 37 36 33 36 39 38 34 33 33 33 32 31 30 30 28 26 24 24 27 28 29 27 27 27 27 27 27 29 30 29 27 26 26 26 25 26 25 25 26 26
36 37 42 45 41 40 38 37 37 34 32 33 33 33 31 32 35 34 35 34 33 33 33 33 32 31 30 29 28 27 25 23 24 25 24 28 27 27 27 25 27 27 27 27 26 24 25 24 22 23 23 23 23 22
41 42 39 39 39 38 37 33 31 31 32 34 37 35 35 36 36 35 37 38 39 40 39 37 34 30 28 26 23 20 22 23 23 24 23 23 24 25 25 24 23 23 22 23 21 20 21 20 19 19 19 20 20 20
40 38 40 37 36 36 36 37 35 36 37 36 37 38 38 43 44 41 40 41 41 43 40 30 28 26 23 20 20 20 22 23 22 22 21 21 20 20 21 20 20 19 19 20 22 20 20 18 19 19 20 18 18 19
35 37 38 36 37 38 38 37 37 39 40 40 41 41 41 43 45 46 45 42 37 30 28 27 25 23 19 17 19 20 21 22 22 21 20 18 18 19 19 20 20 19 19 19 18 18 19 18 18 18 18 18 18 18
35 33 34 37 36 38 38 40 40 40 40 40 42 40 40 40 43 42 33 32 29 28 27 25 22 20 20 19 21 21 20 22 22 22 21 19 18 18 19 19 18 18 18 18 17 17 17 17 17 17 17 18 18 18
32 32 30 31 35 40 41 43 41 40 38 39 38 39 39 41 40 35 33 30 28 25 25 23 21 20 22 21 22 21 22 22 23 22 21 17 17 19 18 17 17 18 18 17 17 17 17 17 17 18 18 18 19 19
30 30 30 29 28 28 36 43 44 41 36 34 39 39 37 37 36 34 32 31 28 26 24 21 21 21 22 22 22 21 21 23 23 22 21 20 21 21 20 19 20 20 19 19 19 18 19 19 19 19 19 18 18 17
Wind_Speed
28 28 29 28 29 28 25 23 21 18 17 18 15 14 15 14 9 11 8 13 12 5 14 24 28 27 25 19 16 12 7 5 5 10 17 20 24 31 30 30 35 34 34 34 30 32 33 6 9 15 6 13 16 16
28 28 27 27 28 27 23 19 17 16 17 13 14 13 7 7 7 9 9 9 13 11 15 22 27 27 26 24 23 18 10 2 4 8 4 8 6 13 25 29 35 40 33 31 21 26 10 9 10 3 8 10 10 10
26 24 24 26 23 20 14 14 13 13 14 14 10 7 9 9 10 12 8 8 3 5 18 27 24 25 30 33 27 19 16 5 5 10 6 5 7 6 14 22 28 16 31 33 16 14 11 14 10 5 5 5 2 5
22 22 23 20 19 18 16 14 14 14 12 9 7 8 10 9 10 11 7 4 4 6 9 15 6 5 6 14 26 24 21 5 5 9 10 7 8 9 5 10 3 6 17 11 19 20 20 16 12 10 10 9 13 19
19 19 19 19 20 19 18 15 13 10 8 8 9 10 10 7 6 8 11 13 13 5 9 20 25 21 20 19 15 22 21 17 12 6 4 5 4 4 12 6 8 6 7 6 17 22 25 17 13 10 12 16 15 20
17 16 17 19 18 18 17 17 14 12 10 10 10 9 7 9 10 9 3 2 8 11 9 8 13 3 3 13 12 14 15 10 4 3 6 6 8 10 7 4 10 6 16 6 18 25 28 22 22 21 17 14 15 16
17 17 18 19 18 16 14 15 15 12 12 11 11 10 10 9 10 5 5 6 10 2 4 7 6 5 6 13 13 11 11 6 4 3 8 3 5 13 4 5 10 12 12 15 19 23 19 16 13 20 21 16 16 15
20 17 17 17 17 14 15 14 17 15 15 14 14 13 13 13 14 8 3 4 8 3 4 5 8 5 14 14 11 11 11 9 12 8 2 4 11 3 3 9 12 13 20 23 23 21 20 16 18 20 24 27 13 13
17 18 16 16 15 15 17 19 20 23 21 18 17 16 9 6 3 2 7 4 4 3 3 3 4 4 10 4 2 13 10 12 6 2 2 4 2 1 10 11 14 17 12 18 21 25 24 22 19 17 20 17 19 12
17 17 17 18 18 18 19 21 23 27 29 19 7 4 4 2 2 7 6 5 6 7 6 6 6 6 11 10 9 8 5 4 2 5 2 5 4 13 14 15 16 18 15 11 19 22 23 19 16 10 7 8 13 20
17 18 17 17 17 19 22 22 22 27 12 4 4 4 12 6 4 3 3 3 4 5 5 4 9 9 8 4 5 7 5 1 1 5 2 4 3 8 12 17 14 15 13 13 15 15 15 9 7 5 6 2 6 0
18 18 19 19 21 21 26 25 21 12 9 10 9 9 6 3 3 4 6 5 5 3 3 4 5 6 1 4 7 9 6 2 3 3 5 3 4 6 11 12 10 10 12 12 11 9 4 8 11 8 12 8 3 5
19 20 21 21 23 24 27 25 21 12 14 5 4 4 6 3 4 6 9 3 6 10 7 6 7 4 1 13 8 1 4 5 8 5 4 3 7 2 9 7 10 9 9 7 4 5 7 8 8 7 6 5 7 4
22 23 23 21 20 26 26 22 16 8 4 4 5 6 6 6 5 5 13 12 11 9 8 7 6 5 6 5 6 6 8 4 3 4 4 10 7 3 3 9 10 5 7 9 11 6 7 11 10 9 9 10 8 9
27 28 20 16 24 27 26 19 11 4 4 5 4 6 5 8 16 18 16 10 13 15 11 2 6 11 10 6 8 7 6 4 7 5 8 11 10 3 5 4 7 11 8 8 9 10 10 8 10 12 11 10 8 9
31 26 10 26 29 32 27 14 5 2 2 3 3 3 8 12 19 18 18 19 18 16 10 3 7 5 9 7 9 9 5 6 4 3 12 12 11 9 3 3 7 10 11 10 7 12 11 9 8 11 9 9 10 10
29 8 24 28 31 32 9 5 3 2 6 4 5 14 14 14 15 18 18 18 19 15 14 7 9 7 3 6 6 6 4 0 6 8 9 7 6 6 5 5 6 10 9 8 7 7 5 7 10 9 9 6 5 6
12 20 24 26 26 16 2 4 5 4 7 10 12 14 14 13 15 16 16 14 12 14 13 10 9 13 7 5 5 5 3 2 10 5 4 7 7 6 6 8 9 10 10 11 6 9 9 10 8 7 4 5 3 6
21 22 22 22 13 6 5 4 6 6 7 10 13 11 11 12 13 13 13 11 13 12 11 10 9 8 8 7 11 12 12 8 10 10 10 10 11 9 9 9 12 13 13 12 14 13 12 11 11 13 13 13 13 11
24 11 15 17 9 4 3 3 3 4 7 8 11 11 11 13 13 14 16 17 15 16 15 10 13 12 12 13 13 14 13 11 9 10 8 9 11 13 13 11 9 8 9 8 12 16 11 11 12 13 12 12 11 12
10 14 13 7 3 6 4 6 4 4 5 6 10 6 11 16 19 18 19 18 17 21 16 13 15 14 15 14 14 13 15 14 13 12 11 10 11 11 10 9 8 10 10 11 11 10 11 12 13 14 12 12 12 12
7 14 5 3 4 4 4 6 4 7 5 5 14 13 9 11 12 15 12 13 7 8 8 11 13 14 18 18 15 14 12 12 10 8 7 6 4 6 6 7 8 9 9 10 10 11 11 12 11 14 12 12 11 11
10 2 4 3 4 4 3 4 3 4 5 5 6 5 4 7 7 9 6 9 7 9 10 7 9 10 12 16 19 21 21 16 11 9 7 5 5 5 5 6 7 7 10 10 9 10 11 10 11 12 11 13 12 12
4 5 5 5 5 4 3 5 3 3 3 3 4 3 4 4 1 4 10 8 6 2 8 14 17 14 16 17 18 19 20 18 17 14 15 16 15 9 4 5 6 8 9 12 14 14 15 15 15 13 12 14 13 14
5 5 3 4 1 4 3 3 3 3 4 3 3 3 4 1 4 5 7 9 14 18 16 15 13 15 16 16 17 18 20 18 17 16 16 16 16 16 15 15 20 16 17 15 16 17 17 16 15 15 15 13 13 14
4 2 4 8 5 5 6 5 4 5 4 3 4 2 1 1 6 6 4 11 11 13 15 16 16 16 16 17 18 18 19 18 14 13 12 13 13 14 14 14 15 16 19 17 17 18 18 19 19 19 18 17 13 15
4 5 2 1 4 4 4 3 2 3 4 4 4 4 5 5 6 4 5 9 12 14 16 18 18 17 15 14 12 12 13 16 16 16 12 6 9 14 15 16 16 16 17 15 17 17 16 18 19 19 18 19 18 19
4 7 8 8 4 3 5 7 6 7 9 6 4 4 4 6 6 9 10 14 19 20 17 13 10 13 14 14 16 16 13 17 16 16 15 10 16 16 15 15 15 12 14 11 14 15 15 17 18 17 15 15 15 15
3 7 5 8 6 4 7 8 10 10 14 12 4 6 3 4 8 10 8 7 5 3 6 8 8 12 16 16 14 15 15 16 18 18 17 14 15 16 16 16 16 15 15 16 9 10 14 15 13 12 13 14 14 15
11 6 3 6 11 6 8 11 13 13 13 12 8 13 8 3 4 1 1 2 4 6 12 15 15 16 17 16 15 15 15 16 17 17 17 17 17 17 17 16 15 15 14 14 14 13 11 15 12 13 16 17 16 16
6 10 8 7 8 7 11 12 10 11 11 12 10 10 6 5 5 3 5 7 11 13 14 15 15 15 16 15 14 13 14 14 15 16 17 16 15 15 14 14 14 14 14 14 13 13 15 15 15 16 15 15 15 15
5 4 6 4 6 7 14 6 3 5 4 5 6 3 5 3 2 2 11 14 14 14 12 13 14 13 13 13 12 9 6 9 13 14 17 15 13 13 14 13 14 14 15 14 13 14 15 16 15 16 16 17 17 17
3 9 8 8 4 3 7 6 5 4 3 5 5 1 3 6 5 5 5 7 8 12 12 12 9 9 9 11 12 12 9 10 13 11 10 8 8 12 13 13 15 16 17 16 17 17 17 17 17 16 16 16 16 15
Wind_Direction
314 312 313 314 314 314 310 306 306 310 304 295 292 284 287 279 255 221 257 218 223 236 269 269 277 278 281 276 268 307 244 169 220 239 234 236 235 233 237 229 212 205 205 217 216 229 236 94 185 225 354 324 311 302
319 322 320 315 313 310 312 312 306 304 306 301 302 297 287 273 245 221 275 230 208 233 264 300 277 271 264 262 280 285 294 338 267 260 269 319 305 292 234 251 207 209 208 206 218 216 96 87 80 35 339 313 315 301
325 330 326 325 336 346 335 328 320 316 315 304 310 310 299 273 247 220 263 286 290 311 279 260 261 255 228 235 245 256 257 213 242 340 297 271 274 283 252 241 213 213 212 207 152 126 104 90 87 121 38 24 316 78
328 334 334 339 344 350 347 338 325 315 321 336 313 314 313 291 247 234 253 220 255 277 285 273 332 267 250 219 209 219 242 142 319 321 295 266 273 350 267 297 303 14 296 180 108 118 105 83 82 61 27 50 54 67
334 343 349 348 346 353 345 341 347 348 336 330 323 319 315 300 282 257 244 247 233 225 295 301 298 272 231 222 211 207 226 252 277 305 291 270 291 354 295 262 27 10 3 1 218 131 94 92 91 103 79 60 56 79
350 348 349 349 354 358 4 9 8 1 354 346 345 342 321 285 280 287 250 187 228 224 283 307 1 218 221 164 190 191 206 213 178 292 253 268 292 317 304 75 27 6 295 353 67 97 99 89 67 44 68 86 90 76
347 347 346 348 349 354 360 355 353 351 341 330 322 318 316 306 291 281 288 328 333 326 289 291 278 214 153 160 178 181 187 164 141 252 238 285 297 340 353 33 33 29 29 83 104 109 94 78 63 46 47 51 61 77
354 349 343 346 349 357 353 350 346 335 318 304 299 295 290 286 276 270 338 204 288 200 254 275 299 310 180 166 159 165 168 190 189 228 164 360 327 312 63 19 90 75 71 67 75 87 97 92 58 35 23 11 59 49
356 354 347 341 344 346 346 341 338 332 326 307 290 288 275 235 247 57 146 160 218 258 282 268 279 278 213 53 252 179 183 197 218 202 28 174 325 354 76 59 55 71 77 93 90 84 73 70 63 46 43 10 356 33
350 349 348 345 343 343 337 335 332 328 324 309 290 231 280 51 40 172 171 181 196 199 220 258 276 297 348 212 151 167 182 180 233 82 228 49 60 42 61 57 57 72 73 80 91 78 80 61 37 41 73 17 337 342
342 342 340 338 336 335 332 330 331 325 301 311 314 296 337 327 272 238 267 233 223 235 226 293 303 323 30 16 10 45 160 142 160 205 179 83 27 49 44 63 51 51 99 99 95 96 92 98 108 29 344 160 248 348
332 328 325 324 319 320 333 327 325 314 337 321 295 291 278 293 293 298 306 307 251 241 234 230 318 325 359 204 239 166 185 138 80 119 82 68 8 54 65 57 38 35 57 64 78 81 135 151 140 164 182 199 299 77
329 324 323 317 312 318 329 330 327 308 285 218 242 319 349 7 348 325 340 354 351 332 33 350 305 309 309 181 221 239 119 54 98 41 57 86 200 96 132 133 125 134 111 72 47 187 133 100 109 105 85 66 117 128
332 324 316 312 314 324 329 332 329 316 292 27 0 5 20 352 334 310 326 329 307 311 0 333 342 300 322 337 28 18 83 32 74 70 80 141 141 149 127 163 126 109 100 115 111 94 44 72 70 78 94 102 90 51
328 324 320 325 339 332 332 330 305 301 25 48 29 8 336 297 286 267 279 338 341 334 349 143 302 12 13 3 19 20 43 65 25 46 107 157 143 124 100 87 117 118 121 98 70 67 55 64 77 66 58 69 73 87
328 317 355 349 339 331 328 313 239 293 154 146 177 337 326 345 1 4 3 4 347 327 285 246 5 35 31 23 15 18 33 26 353 42 130 127 145 144 136 116 103 98 121 110 83 66 53 62 63 78 53 50 53 52
318 338 356 344 334 320 316 308 306 314 9 7 342 13 358 357 1 3 352 358 332 4 15 29 31 25 90 27 34 16 343 349 349 30 87 108 100 95 51 75 59 81 76 85 95 70 35 77 57 53 36 20 77 64
312 326 338 330 330 314 329 0 318 12 21 24 10 11 356 9 3 360 7 8 6 11 40 56 48 37 46 39 24 11 353 27 169 179 97 87 85 94 88 74 71 65 47 44 48 89 24 24 44 57 67 351 199 84
309 311 311 312 323 302 348 27 339 6 19 37 359 7 7 13 14 14 11 25 10 30 40 46 48 38 44 33 30 37 41 55 79 74 69 68 66 59 71 91 83 81 68 52 32 48 65 43 20 12 13 5 351 33
301 299 319 308 301 306 345 24 290 350 11 349 10 7 21 18 20 20 29 34 54 56 58 65 64 51 42 36 29 32 32 38 60 73 75 91 95 75 58 59 61 81 81 78 67 25 25 19 18 359 10 343 343 349
298 1 322 305 10 15 3 351 21 18 332 346 10 357 28 26 31 28 13 32 42 36 43 36 43 40 44 43 36 32 34 39 52 48 44 48 30 50 60 67 58 47 39 32 22 31 23 18 4 350 346 359 350 318
347 334 304 354 352 7 32 26 2 347 331 358 17 30 19 16 23 17 18 39 36 29 22 25 35 46 56 52 43 40 62 67 68 43 15 351 57 68 58 25 23 25 40 26 17 14 13 17 10 344 351 352 337 346
300 269 308 340 352 29 15 342 45 37 30 17 23 54 39 49 17 4 35 16 15 351 2 54 89 96 79 62 48 29 13 7 36 50 36 27 77 25 9 18 18 31 5 22 7 8 2 356 12 335 354 350 344 350
242 348 353 360 360 11 324 19 21 53 90 45 35 26 55 51 7 73 56 55 39 130 47 32 33 38 44 35 34 34 12 9 3 15 31 355 349 6 347 343 3 29 29 4 1 357 353 349 336 340 357 343 356 356
326 3 325 348 292 328 33 37 48 47 55 39 40 46 34 15 66 68 46 25 21 34 28 33 43 38 26 23 20 19 15 7 5 360 19 0 360 352 357 18 63 35 18 355 351 348 343 340 341 343 337 340 356 346
26 56 10 358 13 353 0 10 22 10 2 10 17 344 107 279 59 56 36 354 24 28 28 24 20 17 24 19 10 7 2 358 3 2 14 11 20 13 7 360 353 14 2 4 349 348 352 351 344 344 341 344 353 341
1 12 8 115 314 322 337 19 24 353 12 18 323 329 9 51 62 60 49 21 28 22 27 23 16 9 5 4 4 4 358 360 8 345 345 4 51 48 15 8 22 9 341 12 0 354 0 352 346 341 340 336 334 332
342 350 350 348 347 23 347 352 22 11 9 9 25 7 62 29 59 35 33 23 25 23 13 351 346 344 357 359 356 355 12 6 1 359 345 6 41 44 24 7 20 358 347 22 6 355 2 352 340 335 339 336 338 340
321 21 355 335 40 29 1 32 11 23 353 337 23 70 85 72 39 48 37 18 15 13 315 329 354 359 1 360 10 6 25 15 10 7 7 8 11 10 10 1 355 354 354 350 41 49 26 350 333 338 335 339 344 1
7 4 30 16 34 42 33 51 56 59 46 59 91 102 88 159 195 62 354 332 314 324 2 0 11 16 2 359 8 6 42 33 27 19 359 355 358 359 357 350 352 352 355 352 349 352 29 340 352 4 8 0 3 350
14 15 25 57 50 26 92 89 82 69 75 85 86 116 143 150 148 243 23 321 352 11 18 358 9 22 8 6 17 11 3 35 30 22 12 350 356 358 349 356 358 357 358 350 355 358 2 356 4 5 1 356 354 344
0 9 7 354 87 99 127 124 101 91 115 122 130 147 142 166 136 65 19 3 11 11 21 11 12 16 19 1 12 26 341 13 33 21 13 6 2 360 352 7 1 3 354 346 357 358 7 4 0 1 355 353 351 348
10 43 17 2 14 22 119 133 168 155 174 91 86 347 81 65 65 26 64 36 23 4 359 0 17 14 32 13 13 357 354 53 99 105 82 39 356 340 337 14 2 2 357 357 5 3 4 0 0 359 352 348 344 344